Time,TemperatureF,DewpointF,PressureIn,WindDirection,WindDirectionDegrees,WindSpeedMPH,WindSpeedGustMPH,Humidity,HourlyPrecipIn,Conditions,Clouds,dailyrainin,SoftwareType,DateUTC
2013-05-29 00:02:00,70.2,43.3,-100.00,SW,219,10.0,20.0,38,0.00,,,0.00,meteohub,2013-05-29 07:02:00,
2013-05-29 00:07:00,70.2,43.3,-100.00,SW,227,7.0,20.0,38,0.00,,,0.00,meteohub,2013-05-29 07:07:00,
2013-05-29 00:12:00,70.3,43.5,-100.00,SW,232,9.0,20.0,38,0.00,,,0.00,meteohub,2013-05-29 07:12:00,
2013-05-29 00:17:00,70.2,43.3,-100.00,SSW,209,14.0,18.0,38,0.00,,,0.00,meteohub,2013-05-29 07:17:00,
2013-05-29 00:22:00,70.0,43.2,-100.00,SSW,213,7.0,18.0,38,0.00,,,0.00,meteohub,2013-05-29 07:22:00,
2013-05-29 00:27:00,69.8,43.0,-100.00,SW,224,8.0,17.0,38,0.00,,,0.00,meteohub,2013-05-29 07:27:00,
2013-05-29 00:32:00,69.6,42.8,-100.00,SW,232,8.0,17.0,38,0.00,,,0.00,meteohub,2013-05-29 07:32:00,
2013-05-29 00:37:00,69.6,42.8,-100.00,SW,223,9.0,17.0,38,0.00,,,0.00,meteohub,2013-05-29 07:37:00,
2013-05-29 00:42:00,69.6,42.8,-100.00,SW,232,16.0,17.0,38,0.00,,,0.00,meteohub,2013-05-29 07:42:00,
2013-05-29 00:47:00,69.4,42.8,-100.00,WSW,238,8.0,17.0,38,0.00,,,0.00,meteohub,2013-05-29 07:47:00,
2013-05-29 00:52:00,69.4,42.8,-100.00,SW,232,10.0,17.0,38,0.00,,,0.00,meteohub,2013-05-29 07:52:00,
2013-05-29 00:57:00,69.4,42.8,-100.00,SSW,213,7.0,19.0,38,0.00,,,0.00,meteohub,2013-05-29 07:57:00,
2013-05-29 01:02:00,69.8,43.0,-100.00,SW,233,5.0,19.0,38,0.00,,,0.00,meteohub,2013-05-29 08:02:00,
2013-05-29 01:07:00,69.6,42.3,-100.00,SSW,207,4.0,18.0,37,0.00,,,0.00,meteohub,2013-05-29 08:07:00,
2013-05-29 01:12:00,69.4,42.8,-100.00,SW,215,0.0,14.0,38,0.00,,,0.00,meteohub,2013-05-29 08:12:00,
2013-05-29 01:17:00,69.4,42.1,-100.00,SSW,200,1.0,12.0,37,0.00,,,0.00,meteohub,2013-05-29 08:17:00,
2013-05-29 01:22:00,69.4,42.1,-100.00,SW,215,7.0,12.0,37,0.00,,,0.00,meteohub,2013-05-29 08:22:00,
2013-05-29 01:27:00,69.4,42.1,-100.00,West,277,2.0,12.0,37,0.00,,,0.00,meteohub,2013-05-29 08:27:00,
2013-05-29 01:32:00,68.9,42.3,-100.00,SSW,213,7.0,15.0,38,0.00,,,0.00,meteohub,2013-05-29 08:32:00,
2013-05-29 01:37:00,68.7,42.8,-100.00,WSW,239,5.0,15.0,39,0.00,,,0.00,meteohub,2013-05-29 08:37:00,
2013-05-29 01:42:00,68.5,42.6,-100.00,SSW,196,4.0,15.0,39,0.00,,,0.00,meteohub,2013-05-29 08:42:00,
2013-05-29 01:47:00,68.5,42.6,-100.00,SSW,203,6.0,13.0,39,0.00,,,0.00,meteohub,2013-05-29 08:47:00,
2013-05-29 01:52:00,68.2,42.3,-100.00,WSW,237,6.0,13.0,39,0.00,,,0.00,meteohub,2013-05-29 08:52:00,
2013-05-29 01:57:00,67.6,41.7,-100.00,SW,216,4.0,11.0,39,0.00,,,0.00,meteohub,2013-05-29 08:57:00,
2013-05-29 02:02:00,67.6,41.7,-100.00,SSW,208,3.0,10.0,39,0.00,,,0.00,meteohub,2013-05-29 09:02:00,
2013-05-29 02:07:00,67.8,41.9,-100.00,SW,234,6.0,10.0,39,0.00,,,0.00,meteohub,2013-05-29 09:07:00,
2013-05-29 02:12:00,67.5,41.7,-100.00,SW,232,2.0,7.0,39,0.00,,,0.00,meteohub,2013-05-29 09:12:00,
2013-05-29 02:17:00,67.3,42.1,-100.00,SW,219,4.0,7.0,40,0.00,,,0.00,meteohub,2013-05-29 09:17:00,
2013-05-29 02:22:00,67.5,41.7,-100.00,SW,219,6.0,7.0,39,0.00,,,0.00,meteohub,2013-05-29 09:22:00,
2013-05-29 02:27:00,67.8,41.9,-100.00,SW,223,4.0,7.0,39,0.00,,,0.00,meteohub,2013-05-29 09:27:00,
2013-05-29 02:32:00,67.6,41.7,-100.00,SW,221,6.0,8.0,39,0.00,,,0.00,meteohub,2013-05-29 09:32:00,
2013-05-29 02:37:00,67.6,41.7,-100.00,SSW,207,5.0,10.0,39,0.00,,,0.00,meteohub,2013-05-29 09:37:00,
2013-05-29 02:42:00,68.2,41.5,-100.00,SSW,197,4.0,13.0,38,0.00,,,0.00,meteohub,2013-05-29 09:42:00,
2013-05-29 02:47:00,68.2,41.5,-100.00,SSW,198,7.0,13.0,38,0.00,,,0.00,meteohub,2013-05-29 09:47:00,
2013-05-29 02:52:00,67.8,41.9,-100.00,SSW,208,7.0,13.0,39,0.00,,,0.00,meteohub,2013-05-29 09:52:00,
2013-05-29 02:57:00,67.6,41.7,-100.00,SW,221,5.0,13.0,39,0.00,,,0.00,meteohub,2013-05-29 09:57:00,
2013-05-29 03:02:00,67.5,42.3,-100.00,West,260,8.0,13.0,40,0.00,,,0.00,meteohub,2013-05-29 10:02:00,
2013-05-29 03:07:00,67.6,41.2,-100.00,WSW,247,9.0,14.0,38,0.00,,,0.00,meteohub,2013-05-29 10:07:00,
2013-05-29 03:12:00,67.6,41.2,-100.00,SSW,207,3.0,14.0,38,0.00,,,0.00,meteohub,2013-05-29 10:12:00,
2013-05-29 03:17:00,67.6,41.2,-100.00,WSW,249,4.0,13.0,38,0.00,,,0.00,meteohub,2013-05-29 10:17:00,
2013-05-29 03:22:00,67.8,41.4,-100.00,SW,229,6.0,14.0,38,0.00,,,0.00,meteohub,2013-05-29 10:22:00,
2013-05-29 03:27:00,67.6,41.7,-100.00,WSW,251,6.0,14.0,39,0.00,,,0.00,meteohub,2013-05-29 10:27:00,
2013-05-29 03:32:00,67.5,41.7,-100.00,SW,214,7.0,14.0,39,0.00,,,0.00,meteohub,2013-05-29 10:32:00,
2013-05-29 03:37:00,67.6,41.7,-100.00,South,190,2.0,13.0,39,0.00,,,0.00,meteohub,2013-05-29 10:37:00,
2013-05-29 03:42:00,67.3,41.5,-100.00,SW,226,9.0,13.0,39,0.00,,,0.00,meteohub,2013-05-29 10:42:00,
2013-05-29 03:47:00,67.3,41.5,-100.00,SW,223,10.0,11.0,39,0.00,,,0.00,meteohub,2013-05-29 10:47:00,
2013-05-29 03:52:00,67.1,41.4,-100.00,WSW,237,11.0,11.0,39,0.00,,,0.00,meteohub,2013-05-29 10:52:00,
2013-05-29 03:57:00,67.1,41.4,-100.00,WSW,250,11.0,13.0,39,0.00,,,0.00,meteohub,2013-05-29 10:57:00,
2013-05-29 04:02:00,67.6,41.7,-100.00,SSW,212,11.0,15.0,39,0.00,,,0.00,meteohub,2013-05-29 11:02:00,
2013-05-29 04:07:00,67.8,41.9,-100.00,SW,220,14.0,16.0,39,0.00,,,0.00,meteohub,2013-05-29 11:07:00,
2013-05-29 04:12:00,67.5,41.7,-100.00,SW,217,9.0,16.0,39,0.00,,,0.00,meteohub,2013-05-29 11:12:00,
2013-05-29 04:17:00,67.3,42.1,-100.00,SW,228,10.0,16.0,40,0.00,,,0.00,meteohub,2013-05-29 11:17:00,
2013-05-29 04:22:00,67.3,42.1,-100.00,WSW,258,5.0,17.0,40,0.00,,,0.00,meteohub,2013-05-29 11:22:00,
2013-05-29 04:27:00,67.1,41.4,-100.00,WSW,245,11.0,17.0,39,0.00,,,0.00,meteohub,2013-05-29 11:27:00,
2013-05-29 04:32:00,67.3,41.5,-100.00,SW,225,7.0,17.0,39,0.00,,,0.00,meteohub,2013-05-29 11:32:00,
2013-05-29 04:37:00,67.6,41.2,-100.00,SSW,209,13.0,17.0,38,0.00,,,0.00,meteohub,2013-05-29 11:37:00,
2013-05-29 04:42:00,67.5,41.7,-100.00,SSW,204,8.0,17.0,39,0.00,,,0.00,meteohub,2013-05-29 11:42:00,
2013-05-29 04:47:00,67.6,41.7,-100.00,SW,225,12.0,17.0,39,0.00,,,0.00,meteohub,2013-05-29 11:47:00,
2013-05-29 04:52:00,67.3,42.1,-100.00,SW,234,14.0,17.0,40,0.00,,,0.00,meteohub,2013-05-29 11:52:00,
2013-05-29 04:57:00,67.3,42.1,-100.00,WSW,254,13.0,18.0,40,0.00,,,0.00,meteohub,2013-05-29 11:57:00,
2013-05-29 05:02:00,67.3,42.1,-100.00,SW,235,12.0,20.0,40,0.00,,,0.00,meteohub,2013-05-29 12:02:00,
2013-05-29 05:07:00,67.3,41.5,-100.00,SW,222,13.0,20.0,39,0.00,,,0.00,meteohub,2013-05-29 12:07:00,
2013-05-29 05:12:00,66.9,41.9,-100.00,SSW,211,5.0,20.0,40,0.00,,,0.00,meteohub,2013-05-29 12:12:00,
2013-05-29 05:17:00,66.9,42.4,-100.00,SW,227,7.0,18.0,41,0.00,,,0.00,meteohub,2013-05-29 12:17:00,
2013-05-29 05:22:00,66.6,42.1,-100.00,WSW,244,13.0,18.0,41,0.00,,,0.00,meteohub,2013-05-29 12:22:00,
2013-05-29 05:27:00,66.7,41.7,-100.00,SW,223,14.0,19.0,40,0.00,,,0.00,meteohub,2013-05-29 12:27:00,
2013-05-29 05:32:00,66.7,41.7,-100.00,SSW,211,4.0,19.0,40,0.00,,,0.00,meteohub,2013-05-29 12:32:00,
2013-05-29 05:37:00,66.7,41.7,-100.00,SW,230,8.0,19.0,40,0.00,,,0.00,meteohub,2013-05-29 12:37:00,
2013-05-29 05:42:00,66.6,42.1,-100.00,WSW,252,10.0,17.0,41,0.00,,,0.00,meteohub,2013-05-29 12:42:00,
2013-05-29 05:47:00,66.2,41.7,-100.00,WSW,244,11.0,17.0,41,0.00,,,0.00,meteohub,2013-05-29 12:47:00,
2013-05-29 05:52:00,66.2,41.7,-100.00,SW,229,7.0,16.0,41,0.00,,,0.00,meteohub,2013-05-29 12:52:00,
2013-05-29 05:57:00,66.6,42.1,-100.00,SW,217,14.0,16.0,41,0.00,,,0.00,meteohub,2013-05-29 12:57:00,
2013-05-29 06:02:00,66.6,41.5,-100.00,SW,216,5.0,17.0,40,0.00,,,0.00,meteohub,2013-05-29 13:02:00,
2013-05-29 06:07:00,66.6,41.5,-100.00,SW,215,7.0,17.0,40,0.00,,,0.00,meteohub,2013-05-29 13:07:00,
2013-05-29 06:12:00,67.3,42.1,-100.00,SSW,213,6.0,15.0,40,0.00,,,0.00,meteohub,2013-05-29 13:12:00,
2013-05-29 06:17:00,67.8,41.4,-100.00,SW,234,10.0,14.0,38,0.00,,,0.00,meteohub,2013-05-29 13:17:00,
2013-05-29 06:22:00,68.5,41.9,-100.00,SW,228,8.0,15.0,38,0.00,,,0.00,meteohub,2013-05-29 13:22:00,
2013-05-29 06:27:00,68.5,41.2,-100.00,SW,227,4.0,15.0,37,0.00,,,0.00,meteohub,2013-05-29 13:27:00,
2013-05-29 06:32:00,68.7,42.1,-100.00,SSW,212,4.0,15.0,38,0.00,,,0.00,meteohub,2013-05-29 13:32:00,
2013-05-29 06:37:00,69.3,41.9,-100.00,SSW,198,7.0,13.0,37,0.00,,,0.00,meteohub,2013-05-29 13:37:00,
2013-05-29 06:42:00,69.4,42.1,-100.00,WSW,245,6.0,13.0,37,0.00,,,0.00,meteohub,2013-05-29 13:42:00,
2013-05-29 06:47:00,69.4,42.1,-100.00,SW,229,5.0,13.0,37,0.00,,,0.00,meteohub,2013-05-29 13:47:00,
2013-05-29 06:52:00,69.4,42.1,-100.00,WSW,239,6.0,12.0,37,0.00,,,0.00,meteohub,2013-05-29 13:52:00,
2013-05-29 06:57:00,69.4,42.1,-100.00,WSW,257,8.0,12.0,37,0.00,,,0.00,meteohub,2013-05-29 13:57:00,
2013-05-29 07:02:00,68.5,40.5,-100.00,West,274,10.0,13.0,36,0.00,,,0.00,meteohub,2013-05-29 14:02:00,
2013-05-29 07:07:00,68.4,41.0,-100.00,West,273,5.0,13.0,37,0.00,,,0.00,meteohub,2013-05-29 14:07:00,
2013-05-29 07:12:00,68.7,42.1,-100.00,WSW,246,7.0,11.0,38,0.00,,,0.00,meteohub,2013-05-29 14:12:00,
2013-05-29 07:17:00,69.8,43.0,-100.00,SW,223,8.0,11.0,38,0.00,,,0.00,meteohub,2013-05-29 14:17:00,
2013-05-29 07:22:00,71.1,42.8,-100.00,WSW,237,13.0,13.0,36,0.00,,,0.00,meteohub,2013-05-29 14:22:00,
2013-05-29 07:27:00,72.0,42.8,-100.00,WSW,244,12.0,18.0,35,0.00,,,0.00,meteohub,2013-05-29 14:27:00,
2013-05-29 07:32:00,72.0,42.8,-100.00,WSW,240,6.0,18.0,35,0.00,,,0.00,meteohub,2013-05-29 14:32:00,
2013-05-29 07:37:00,72.0,42.8,-100.00,SSW,195,7.0,18.0,35,0.00,,,0.00,meteohub,2013-05-29 14:37:00,
2013-05-29 07:42:00,72.5,43.3,-100.00,WSW,249,7.0,17.0,35,0.00,,,0.00,meteohub,2013-05-29 14:42:00,
2013-05-29 07:47:00,73.2,42.4,-100.00,SW,218,4.0,14.0,33,0.00,,,0.00,meteohub,2013-05-29 14:47:00,
2013-05-29 07:52:00,73.8,42.1,-100.00,SW,232,14.0,14.0,32,0.00,,,0.00,meteohub,2013-05-29 14:52:00,
2013-05-29 07:57:00,73.8,41.2,-100.00,SW,232,13.0,16.0,31,0.00,,,0.00,meteohub,2013-05-29 14:57:00,
2013-05-29 08:02:00,74.1,41.5,-100.00,SW,226,6.0,16.0,31,0.00,,,0.00,meteohub,2013-05-29 15:02:00,
2013-05-29 08:07:00,74.7,42.1,-100.00,SSW,205,7.0,17.0,31,0.00,,,0.00,meteohub,2013-05-29 15:07:00,
2013-05-29 08:12:00,74.8,42.3,-100.00,SSW,206,6.0,17.0,31,0.00,,,0.00,meteohub,2013-05-29 15:12:00,
2013-05-29 08:17:00,75.2,41.7,-100.00,SSW,194,9.0,17.0,30,0.00,,,0.00,meteohub,2013-05-29 15:17:00,
2013-05-29 08:22:00,75.6,41.0,-100.00,SW,224,7.0,16.0,29,0.00,,,0.00,meteohub,2013-05-29 15:22:00,
2013-05-29 08:27:00,75.9,41.4,-100.00,WSW,246,14.0,15.0,29,0.00,,,0.00,meteohub,2013-05-29 15:27:00,
2013-05-29 08:32:00,76.5,41.9,-100.00,SSW,197,3.0,17.0,29,0.00,,,0.00,meteohub,2013-05-29 15:32:00,
2013-05-29 08:37:00,76.5,41.9,-100.00,WSW,246,9.0,17.0,29,0.00,,,0.00,meteohub,2013-05-29 15:37:00,
2013-05-29 08:42:00,76.6,41.2,-100.00,SW,229,14.0,17.0,28,0.00,,,0.00,meteohub,2013-05-29 15:42:00,
2013-05-29 08:47:00,77.2,42.4,-100.00,SSW,196,9.0,18.0,29,0.00,,,0.00,meteohub,2013-05-29 15:47:00,
2013-05-29 08:52:00,77.5,41.9,-100.00,SSW,199,13.0,18.0,28,0.00,,,0.00,meteohub,2013-05-29 15:52:00,
2013-05-29 08:57:00,77.2,42.4,-100.00,SSW,211,16.0,18.0,29,0.00,,,0.00,meteohub,2013-05-29 15:57:00,
2013-05-29 09:02:00,77.4,42.6,-100.00,SW,215,10.0,21.0,29,0.00,,,0.00,meteohub,2013-05-29 16:02:00,
2013-05-29 09:07:00,78.4,42.6,-100.00,SSW,202,16.0,21.0,28,0.00,,,0.00,meteohub,2013-05-29 16:07:00,
2013-05-29 09:12:00,78.6,42.8,-100.00,South,179,8.0,21.0,28,0.00,,,0.00,meteohub,2013-05-29 16:12:00,
2013-05-29 09:17:00,78.8,42.1,-100.00,South,186,8.0,20.0,27,0.00,,,0.00,meteohub,2013-05-29 16:17:00,
2013-05-29 09:22:00,79.3,42.4,-100.00,South,172,4.0,21.0,27,0.00,,,0.00,meteohub,2013-05-29 16:22:00,
2013-05-29 09:27:00,79.2,42.3,-100.00,SSW,193,4.0,21.0,27,0.00,,,0.00,meteohub,2013-05-29 16:27:00,
2013-05-29 09:32:00,80.1,42.1,-100.00,SW,227,9.0,21.0,26,0.00,,,0.00,meteohub,2013-05-29 16:32:00,
2013-05-29 09:37:00,80.4,42.4,-100.00,SSW,204,9.0,18.0,26,0.00,,,0.00,meteohub,2013-05-29 16:37:00,
2013-05-29 09:42:00,80.2,42.3,-100.00,SSW,198,9.0,16.0,26,0.00,,,0.00,meteohub,2013-05-29 16:42:00,
2013-05-29 09:47:00,80.4,42.4,-100.00,South,182,3.0,16.0,26,0.00,,,0.00,meteohub,2013-05-29 16:47:00,
2013-05-29 09:52:00,80.8,42.6,-100.00,South,183,12.0,16.0,26,0.00,,,0.00,meteohub,2013-05-29 16:52:00,
2013-05-29 09:57:00,81.0,42.8,-100.00,SW,221,10.0,20.0,26,0.00,,,0.00,meteohub,2013-05-29 16:57:00,
2013-05-29 10:02:00,81.0,43.9,-100.00,SW,233,9.0,20.0,27,0.00,,,0.00,meteohub,2013-05-29 17:02:00,
2013-05-29 10:07:00,81.0,43.9,-100.00,SW,221,16.0,20.0,27,0.00,,,0.00,meteohub,2013-05-29 17:07:00,
2013-05-29 10:12:00,81.5,44.2,-100.00,South,184,15.0,20.0,27,0.00,,,0.00,meteohub,2013-05-29 17:12:00,
2013-05-29 10:17:00,81.7,44.4,-100.00,WSW,244,12.0,23.0,27,0.00,,,0.00,meteohub,2013-05-29 17:17:00,
2013-05-29 10:22:00,81.9,44.6,-100.00,South,180,13.0,23.0,27,0.00,,,0.00,meteohub,2013-05-29 17:22:00,
2013-05-29 10:27:00,82.2,43.9,-100.00,South,184,11.0,25.0,26,0.00,,,0.00,meteohub,2013-05-29 17:27:00,
2013-05-29 10:32:00,82.6,44.2,-100.00,South,188,11.0,25.0,26,0.00,,,0.00,meteohub,2013-05-29 17:32:00,
2013-05-29 10:37:00,82.9,43.5,-100.00,SW,217,10.0,27.0,25,0.00,,,0.00,meteohub,2013-05-29 17:37:00,
2013-05-29 10:42:00,83.5,43.9,-100.00,SSW,194,8.0,27.0,25,0.00,,,0.00,meteohub,2013-05-29 17:42:00,
2013-05-29 10:47:00,84.0,43.3,-100.00,South,189,6.0,27.0,24,0.00,,,0.00,meteohub,2013-05-29 17:47:00,
2013-05-29 10:52:00,84.7,43.9,-100.00,West,265,4.0,23.0,24,0.00,,,0.00,meteohub,2013-05-29 17:52:00,
2013-05-29 10:57:00,85.1,43.2,-100.00,SSW,208,9.0,18.0,23,0.00,,,0.00,meteohub,2013-05-29 17:57:00,
2013-05-29 11:02:00,84.4,43.7,-100.00,WSW,245,13.0,18.0,24,0.00,,,0.00,meteohub,2013-05-29 18:02:00,
2013-05-29 11:07:00,84.9,44.1,-100.00,SW,236,11.0,20.0,24,0.00,,,0.00,meteohub,2013-05-29 18:07:00,
2013-05-29 11:12:00,85.5,44.6,-100.00,SW,227,7.0,20.0,24,0.00,,,0.00,meteohub,2013-05-29 18:12:00,
2013-05-29 11:17:00,85.6,44.8,-100.00,WSW,238,19.0,22.0,24,0.00,,,0.00,meteohub,2013-05-29 18:17:00,
2013-05-29 11:22:00,85.8,43.7,-100.00,West,260,13.0,22.0,23,0.00,,,0.00,meteohub,2013-05-29 18:22:00,
2013-05-29 11:27:00,86.2,45.1,-100.00,SW,218,3.0,22.0,24,0.00,,,0.00,meteohub,2013-05-29 18:27:00,
2013-05-29 11:32:00,86.2,45.1,-100.00,West,262,24.0,24.0,24,0.00,,,0.00,meteohub,2013-05-29 18:32:00,
2013-05-29 11:37:00,85.6,44.8,-100.00,WSW,253,12.0,27.0,24,0.00,,,0.00,meteohub,2013-05-29 18:37:00,
2013-05-29 11:42:00,86.2,44.1,-100.00,WSW,255,12.0,27.0,23,0.00,,,0.00,meteohub,2013-05-29 18:42:00,
2013-05-29 11:47:00,86.2,44.1,-100.00,SW,232,9.0,27.0,23,0.00,,,0.00,meteohub,2013-05-29 18:47:00,
2013-05-29 11:52:00,86.2,44.1,-100.00,WSW,252,13.0,26.0,23,0.00,,,0.00,meteohub,2013-05-29 18:52:00,
2013-05-29 11:57:00,86.4,44.2,-100.00,WSW,246,15.0,26.0,23,0.00,,,0.00,meteohub,2013-05-29 18:57:00,
2013-05-29 12:02:00,86.4,43.0,-100.00,WSW,254,14.0,27.0,22,0.00,,,0.00,meteohub,2013-05-29 19:02:00,
2013-05-29 12:07:00,86.7,43.3,-100.00,West,274,14.0,27.0,22,0.00,,,0.00,meteohub,2013-05-29 19:07:00,
2013-05-29 12:12:00,86.5,44.4,-100.00,SW,222,11.0,28.0,23,0.00,,,0.00,meteohub,2013-05-29 19:12:00,
2013-05-29 12:17:00,87.1,43.7,-100.00,WSW,251,17.0,28.0,22,0.00,,,0.00,meteohub,2013-05-29 19:17:00,
2013-05-29 12:22:00,86.5,43.2,-100.00,WSW,246,9.0,28.0,22,0.00,,,0.00,meteohub,2013-05-29 19:22:00,
2013-05-29 12:27:00,86.7,44.4,-100.00,West,268,17.0,25.0,23,0.00,,,0.00,meteohub,2013-05-29 19:27:00,
2013-05-29 12:32:00,86.7,43.3,-100.00,West,270,21.0,25.0,22,0.00,,,0.00,meteohub,2013-05-29 19:32:00,
2013-05-29 12:37:00,86.4,44.2,-100.00,SSW,199,7.0,25.0,23,0.00,,,0.00,meteohub,2013-05-29 19:37:00,
2013-05-29 12:42:00,87.3,43.7,-100.00,West,269,17.0,25.0,22,0.00,,,0.00,meteohub,2013-05-29 19:42:00,
2013-05-29 12:47:00,86.9,44.6,-100.00,West,259,19.0,26.0,23,0.00,,,0.00,meteohub,2013-05-29 19:47:00,
2013-05-29 12:52:00,86.9,42.3,-100.00,West,275,18.0,26.0,21,0.00,,,0.00,meteohub,2013-05-29 19:52:00,
2013-05-29 12:57:00,87.1,43.7,-100.00,West,277,12.0,25.0,22,0.00,,,0.00,meteohub,2013-05-29 19:57:00,
2013-05-29 13:02:00,87.1,42.4,-100.00,WNW,284,23.0,23.0,21,0.00,,,0.00,meteohub,2013-05-29 20:02:00,
2013-05-29 13:07:00,87.3,45.0,-100.00,West,262,25.0,28.0,23,0.00,,,0.00,meteohub,2013-05-29 20:07:00,
2013-05-29 13:13:00,87.6,42.8,-100.00,SW,225,9.0,28.0,21,0.00,,,0.00,meteohub,2013-05-29 20:13:00,
2013-05-29 13:18:00,87.4,42.8,-100.00,West,261,16.0,28.0,21,0.00,,,0.00,meteohub,2013-05-29 20:18:00,
2013-05-29 13:23:00,87.6,42.8,-100.00,WSW,254,17.0,25.0,21,0.00,,,0.00,meteohub,2013-05-29 20:23:00,
2013-05-29 13:28:00,88.2,42.1,-100.00,WSW,254,22.0,26.0,20,0.00,,,0.00,meteohub,2013-05-29 20:28:00,
2013-05-29 13:33:00,88.9,42.6,-100.00,West,268,11.0,26.0,20,0.00,,,0.00,meteohub,2013-05-29 20:33:00,
2013-05-29 13:38:00,89.1,42.8,-100.00,WSW,244,10.0,26.0,20,0.00,,,0.00,meteohub,2013-05-29 20:38:00,
2013-05-29 13:43:00,88.7,42.4,-100.00,WSW,241,11.0,24.0,20,0.00,,,0.00,meteohub,2013-05-29 20:43:00,
2013-05-29 13:48:00,89.1,41.4,-100.00,West,281,7.0,26.0,19,0.00,,,0.00,meteohub,2013-05-29 20:48:00,
2013-05-29 13:53:00,89.2,41.5,-100.00,WSW,252,23.0,26.0,19,0.00,,,0.00,meteohub,2013-05-29 20:53:00,
2013-05-29 13:58:00,88.9,39.9,-100.00,West,280,8.0,26.0,18,0.00,,,0.00,meteohub,2013-05-29 20:58:00,
2013-05-29 14:03:00,88.9,41.4,-100.00,WNW,286,16.0,25.0,19,0.00,,,0.00,meteohub,2013-05-29 21:03:00,
2013-05-29 14:08:00,88.5,39.6,-100.00,West,279,15.0,25.0,18,0.00,,,0.00,meteohub,2013-05-29 21:08:00,
2013-05-29 14:13:00,89.4,41.7,-100.00,WNW,292,7.0,24.0,19,0.00,,,0.00,meteohub,2013-05-29 21:13:00,
2013-05-29 14:18:00,89.8,40.6,-100.00,WSW,239,10.0,24.0,18,0.00,,,0.00,meteohub,2013-05-29 21:18:00,
2013-05-29 14:23:00,90.0,39.4,-100.00,West,272,14.0,24.0,17,0.00,,,0.00,meteohub,2013-05-29 21:23:00,
2013-05-29 14:28:00,90.0,40.8,-100.00,West,276,9.0,22.0,18,0.00,,,0.00,meteohub,2013-05-29 21:28:00,
2013-05-29 14:33:00,90.5,41.2,-100.00,WSW,244,18.0,29.0,18,0.00,,,0.00,meteohub,2013-05-29 21:33:00,
2013-05-29 14:38:00,90.7,41.4,-100.00,WNW,293,13.0,29.0,18,0.00,,,0.00,meteohub,2013-05-29 21:38:00,
2013-05-29 14:43:00,90.3,39.6,-100.00,WSW,237,16.0,29.0,17,0.00,,,0.00,meteohub,2013-05-29 21:43:00,
2013-05-29 14:48:00,90.1,41.0,-100.00,WSW,250,25.0,26.0,18,0.00,,,0.00,meteohub,2013-05-29 21:48:00,
2013-05-29 14:53:00,90.1,41.0,-100.00,SW,226,18.0,28.0,18,0.00,,,0.00,meteohub,2013-05-29 21:53:00,
2013-05-29 14:58:00,90.1,41.0,-100.00,West,259,19.0,30.0,18,0.00,,,0.00,meteohub,2013-05-29 21:58:00,
2013-05-29 15:03:00,90.3,39.6,-100.00,WSW,242,13.0,30.0,17,0.00,,,0.00,meteohub,2013-05-29 22:03:00,
2013-05-29 15:08:00,90.1,41.0,-100.00,West,266,13.0,30.0,18,0.00,,,0.00,meteohub,2013-05-29 22:08:00,
2013-05-29 15:13:00,90.0,40.8,-100.00,WSW,244,24.0,28.0,18,0.00,,,0.00,meteohub,2013-05-29 22:13:00,
2013-05-29 15:18:00,89.8,39.2,-100.00,WSW,257,24.0,28.0,17,0.00,,,0.00,meteohub,2013-05-29 22:18:00,
2013-05-29 15:23:00,89.8,40.6,-100.00,WSW,242,25.0,28.0,18,0.00,,,0.00,meteohub,2013-05-29 22:23:00,
2013-05-29 15:28:00,89.8,39.2,-100.00,West,269,18.0,28.0,17,0.00,,,0.00,meteohub,2013-05-29 22:28:00,
2013-05-29 15:33:00,89.6,39.0,-100.00,SW,235,24.0,25.0,17,0.00,,,0.00,meteohub,2013-05-29 22:33:00,
2013-05-29 15:38:00,89.4,38.8,-100.00,SW,234,21.0,31.0,17,0.00,,,0.00,meteohub,2013-05-29 22:38:00,
2013-05-29 15:43:00,89.6,39.0,-100.00,WSW,246,15.0,31.0,17,0.00,,,0.00,meteohub,2013-05-29 22:43:00,
2013-05-29 15:48:00,89.4,38.8,-100.00,WSW,254,12.0,31.0,17,0.00,,,0.00,meteohub,2013-05-29 22:48:00,
2013-05-29 15:53:00,89.4,38.8,-100.00,SW,227,13.0,28.0,17,0.00,,,0.00,meteohub,2013-05-29 22:53:00,
2013-05-29 15:58:00,89.6,40.5,-100.00,WSW,248,18.0,28.0,18,0.00,,,0.00,meteohub,2013-05-29 22:58:00,
2013-05-29 16:03:00,89.4,40.3,-100.00,WSW,246,18.0,30.0,18,0.00,,,0.00,meteohub,2013-05-29 23:03:00,
2013-05-29 16:08:00,89.2,40.3,-100.00,SW,229,16.0,30.0,18,0.00,,,0.00,meteohub,2013-05-29 23:08:00,
2013-05-29 16:13:00,89.2,40.3,-100.00,West,261,6.0,30.0,18,0.00,,,0.00,meteohub,2013-05-29 23:13:00,
2013-05-29 16:18:00,89.4,40.3,-100.00,WSW,254,19.0,30.0,18,0.00,,,0.00,meteohub,2013-05-29 23:18:00,
2013-05-29 16:23:00,89.4,38.8,-100.00,SW,221,17.0,26.0,17,0.00,,,0.00,meteohub,2013-05-29 23:23:00,
2013-05-29 16:28:00,89.8,39.2,-100.00,SW,232,14.0,26.0,17,0.00,,,0.00,meteohub,2013-05-29 23:28:00,
2013-05-29 16:33:00,89.4,38.8,-100.00,WSW,244,11.0,26.0,17,0.00,,,0.00,meteohub,2013-05-29 23:33:00,
2013-05-29 16:38:00,89.8,39.2,-100.00,SW,229,14.0,26.0,17,0.00,,,0.00,meteohub,2013-05-29 23:38:00,
2013-05-29 16:43:00,89.4,38.8,-100.00,WSW,248,22.0,26.0,17,0.00,,,0.00,meteohub,2013-05-29 23:43:00,
2013-05-29 16:48:00,89.2,38.7,-100.00,West,259,9.0,26.0,17,0.00,,,0.00,meteohub,2013-05-29 23:48:00,
2013-05-29 16:53:00,89.2,38.7,-100.00,WSW,244,17.0,24.0,17,0.00,,,0.00,meteohub,2013-05-29 23:53:00,
2013-05-29 16:58:00,89.8,39.2,-100.00,SW,234,10.0,23.0,17,0.00,,,0.00,meteohub,2013-05-29 23:58:00,
2013-05-29 17:03:00,89.4,38.8,-100.00,WSW,237,13.0,23.0,17,0.00,,,0.00,meteohub,2013-05-30 00:03:00,
2013-05-29 17:08:00,89.4,38.8,-100.00,SW,233,19.0,22.0,17,0.00,,,0.00,meteohub,2013-05-30 00:08:00,
2013-05-29 17:13:00,89.4,38.8,-100.00,WSW,239,17.0,24.0,17,0.00,,,0.00,meteohub,2013-05-30 00:13:00,
2013-05-29 17:18:00,89.6,39.0,-100.00,SW,226,9.0,24.0,17,0.00,,,0.00,meteohub,2013-05-30 00:18:00,
2013-05-29 17:23:00,89.4,38.8,-100.00,WSW,247,18.0,24.0,17,0.00,,,0.00,meteohub,2013-05-30 00:23:00,
2013-05-29 17:28:00,89.1,38.7,-100.00,West,271,13.0,24.0,17,0.00,,,0.00,meteohub,2013-05-30 00:28:00,
2013-05-29 17:33:00,89.1,40.1,-100.00,WSW,249,15.0,22.0,18,0.00,,,0.00,meteohub,2013-05-30 00:33:00,
2013-05-29 17:38:00,89.1,38.7,-100.00,SW,227,18.0,22.0,17,0.00,,,0.00,meteohub,2013-05-30 00:38:00,
2013-05-29 17:43:00,89.2,38.7,-100.00,SSW,208,5.0,20.0,17,0.00,,,0.00,meteohub,2013-05-30 00:43:00,
2013-05-29 17:48:00,89.2,38.7,-100.00,SW,229,11.0,18.0,17,0.00,,,0.00,meteohub,2013-05-30 00:48:00,
2013-05-29 17:53:00,88.7,39.7,-100.00,WSW,249,13.0,19.0,18,0.00,,,0.00,meteohub,2013-05-30 00:53:00,
2013-05-29 17:58:00,88.2,39.4,-100.00,WSW,240,13.0,19.0,18,0.00,,,0.00,meteohub,2013-05-30 00:58:00,
2013-05-29 18:03:00,87.8,39.0,-100.00,WSW,243,11.0,21.0,18,0.00,,,0.00,meteohub,2013-05-30 01:03:00,
2013-05-29 18:08:00,87.6,40.3,-100.00,West,262,11.0,21.0,19,0.00,,,0.00,meteohub,2013-05-30 01:08:00,
2013-05-29 18:13:00,87.8,40.5,-100.00,WSW,239,10.0,21.0,19,0.00,,,0.00,meteohub,2013-05-30 01:13:00,
2013-05-29 18:18:00,87.6,40.3,-100.00,WSW,244,15.0,21.0,19,0.00,,,0.00,meteohub,2013-05-30 01:18:00,
2013-05-29 18:23:00,87.3,39.9,-100.00,SW,232,14.0,19.0,19,0.00,,,0.00,meteohub,2013-05-30 01:23:00,
2013-05-29 18:28:00,86.9,41.0,-100.00,WSW,253,4.0,19.0,20,0.00,,,0.00,meteohub,2013-05-30 01:28:00,
2013-05-29 18:33:00,86.7,40.8,-100.00,West,261,8.0,20.0,20,0.00,,,0.00,meteohub,2013-05-30 01:33:00,
2013-05-29 18:38:00,86.5,40.6,-100.00,WSW,238,15.0,20.0,20,0.00,,,0.00,meteohub,2013-05-30 01:38:00,
2013-05-29 18:43:00,86.4,40.6,-100.00,West,263,9.0,20.0,20,0.00,,,0.00,meteohub,2013-05-30 01:43:00,
2013-05-29 18:48:00,86.2,41.7,-100.00,WSW,257,13.0,18.0,21,0.00,,,0.00,meteohub,2013-05-30 01:48:00,
2013-05-29 18:53:00,85.6,41.2,-100.00,WSW,238,5.0,19.0,21,0.00,,,0.00,meteohub,2013-05-30 01:53:00,
2013-05-29 18:58:00,85.3,42.1,-100.00,WSW,250,8.0,19.0,22,0.00,,,0.00,meteohub,2013-05-30 01:58:00,
2013-05-29 19:03:00,84.9,41.9,-100.00,West,261,13.0,20.0,22,0.00,,,0.00,meteohub,2013-05-30 02:03:00,
2013-05-29 19:08:00,84.7,41.7,-100.00,West,259,10.0,20.0,22,0.00,,,0.00,meteohub,2013-05-30 02:08:00,
2013-05-29 19:13:00,84.4,42.6,-100.00,WSW,252,13.0,19.0,23,0.00,,,0.00,meteohub,2013-05-30 02:13:00,
2013-05-29 19:18:00,84.4,41.4,-100.00,WSW,240,8.0,19.0,22,0.00,,,0.00,meteohub,2013-05-30 02:18:00,
2013-05-29 19:23:00,83.8,41.0,-100.00,SW,234,10.0,19.0,22,0.00,,,0.00,meteohub,2013-05-30 02:23:00,
2013-05-29 19:28:00,83.5,41.7,-100.00,WSW,244,7.0,16.0,23,0.00,,,0.00,meteohub,2013-05-30 02:28:00,
2013-05-29 19:33:00,83.1,41.5,-100.00,WSW,251,7.0,16.0,23,0.00,,,0.00,meteohub,2013-05-30 02:33:00,
2013-05-29 19:38:00,82.6,42.1,-100.00,WSW,257,10.0,16.0,24,0.00,,,0.00,meteohub,2013-05-30 02:38:00,
2013-05-29 19:43:00,82.2,41.9,-100.00,WSW,244,10.0,13.0,24,0.00,,,0.00,meteohub,2013-05-30 02:43:00,
2013-05-29 19:48:00,81.7,41.4,-100.00,WSW,240,7.0,14.0,24,0.00,,,0.00,meteohub,2013-05-30 02:48:00,
2013-05-29 19:53:00,81.0,41.9,-100.00,WSW,252,5.0,14.0,25,0.00,,,0.00,meteohub,2013-05-30 02:53:00,
2013-05-29 19:58:00,80.4,42.4,-100.00,WSW,240,6.0,14.0,26,0.00,,,0.00,meteohub,2013-05-30 02:58:00,
2013-05-29 20:03:00,80.2,42.3,-100.00,WSW,240,7.0,14.0,26,0.00,,,0.00,meteohub,2013-05-30 03:03:00,
2013-05-29 20:08:00,80.1,42.1,-100.00,West,264,7.0,14.0,26,0.00,,,0.00,meteohub,2013-05-30 03:08:00,
2013-05-29 20:13:00,79.5,41.5,-100.00,WSW,240,10.0,14.0,26,0.00,,,0.00,meteohub,2013-05-30 03:13:00,
2013-05-29 20:18:00,79.3,41.5,-100.00,SW,224,6.0,14.0,26,0.00,,,0.00,meteohub,2013-05-30 03:18:00,
2013-05-29 20:23:00,79.0,42.1,-100.00,SW,236,6.0,13.0,27,0.00,,,0.00,meteohub,2013-05-30 03:23:00,
2013-05-29 20:28:00,78.6,41.9,-100.00,SW,227,3.0,13.0,27,0.00,,,0.00,meteohub,2013-05-30 03:28:00,
2013-05-29 20:33:00,78.4,41.7,-100.00,SW,220,7.0,12.0,27,0.00,,,0.00,meteohub,2013-05-30 03:33:00,
2013-05-29 20:38:00,78.3,41.5,-100.00,SW,224,3.0,12.0,27,0.00,,,0.00,meteohub,2013-05-30 03:38:00,
2013-05-29 20:43:00,77.9,42.3,-100.00,SW,219,3.0,11.0,28,0.00,,,0.00,meteohub,2013-05-30 03:43:00,
2013-05-29 20:48:00,77.5,41.9,-100.00,SW,218,8.0,11.0,28,0.00,,,0.00,meteohub,2013-05-30 03:48:00,
2013-05-29 20:53:00,77.4,42.6,-100.00,SSW,205,3.0,10.0,29,0.00,,,0.00,meteohub,2013-05-30 03:53:00,
2013-05-29 20:58:00,76.8,42.1,-100.00,SSW,213,9.0,10.0,29,0.00,,,0.00,meteohub,2013-05-30 03:58:00,
2013-05-29 21:01:00,76.8,43.0,-100.00,SW,215,6.0,10.0,30,0.00,,,0.00,meteohub,2013-05-30 04:01:00,
2013-05-29 21:06:00,76.6,42.8,-100.00,SSW,206,7.0,11.0,30,0.00,,,0.00,meteohub,2013-05-30 04:06:00,
2013-05-29 21:11:00,76.6,43.7,-100.00,SW,228,6.0,12.0,31,0.00,,,0.00,meteohub,2013-05-30 04:11:00,
2013-05-29 21:16:00,76.8,43.0,-100.00,SW,223,10.0,12.0,30,0.00,,,0.00,meteohub,2013-05-30 04:16:00,
2013-05-29 21:21:00,76.5,43.5,-100.00,SW,217,11.0,15.0,31,0.00,,,0.00,meteohub,2013-05-30 04:21:00,
2013-05-29 21:27:00,76.5,43.5,-100.00,SSW,205,5.0,15.0,31,0.00,,,0.00,meteohub,2013-05-30 04:27:00,
2013-05-29 21:31:00,76.5,43.5,-100.00,SSW,200,5.0,15.0,31,0.00,,,0.00,meteohub,2013-05-30 04:31:00,
2013-05-29 21:37:00,75.7,43.7,-100.00,SW,231,7.0,11.0,32,0.00,,,0.00,meteohub,2013-05-30 04:37:00,
2013-05-29 21:42:00,75.4,44.2,-100.00,SW,225,4.0,12.0,33,0.00,,,0.00,meteohub,2013-05-30 04:42:00,
2013-05-29 21:47:00,75.4,44.2,-100.00,SW,225,4.0,14.0,33,0.00,,,0.00,meteohub,2013-05-30 04:47:00,
2013-05-29 21:52:00,75.2,44.1,-100.00,SW,215,5.0,14.0,33,0.00,,,0.00,meteohub,2013-05-30 04:52:00,
2013-05-29 21:57:00,75.0,44.8,-100.00,SSW,194,6.0,14.0,34,0.00,,,0.00,meteohub,2013-05-30 04:57:00,
2013-05-29 22:02:00,74.8,44.6,-100.00,SW,232,8.0,13.0,34,0.00,,,0.00,meteohub,2013-05-30 05:02:00,
2013-05-29 22:07:00,74.8,44.6,-100.00,WSW,238,7.0,13.0,34,0.00,,,0.00,meteohub,2013-05-30 05:07:00,
2013-05-29 22:12:00,74.8,44.6,-100.00,SW,225,6.0,10.0,34,0.00,,,0.00,meteohub,2013-05-30 05:12:00,
2013-05-29 22:17:00,74.8,44.6,-100.00,SW,222,6.0,11.0,34,0.00,,,0.00,meteohub,2013-05-30 05:17:00,
2013-05-29 22:22:00,74.7,44.4,-100.00,SW,219,6.0,13.0,34,0.00,,,0.00,meteohub,2013-05-30 05:22:00,
2013-05-29 22:27:00,74.5,45.0,-100.00,SSW,194,7.0,13.0,35,0.00,,,0.00,meteohub,2013-05-30 05:27:00,
2013-05-29 22:32:00,74.5,45.0,-100.00,SSW,205,9.0,13.0,35,0.00,,,0.00,meteohub,2013-05-30 05:32:00,
2013-05-29 22:37:00,74.7,45.1,-100.00,SW,215,8.0,13.0,35,0.00,,,0.00,meteohub,2013-05-30 05:37:00,
2013-05-29 22:42:00,74.1,45.5,-100.00,SW,233,3.0,14.0,36,0.00,,,0.00,meteohub,2013-05-30 05:42:00,
2013-05-29 22:47:00,73.9,45.3,-100.00,WSW,242,11.0,14.0,36,0.00,,,0.00,meteohub,2013-05-30 05:47:00,
2013-05-29 22:52:00,73.8,45.9,-100.00,SW,229,8.0,15.0,37,0.00,,,0.00,meteohub,2013-05-30 05:52:00,
2013-05-29 22:57:00,73.9,46.0,-100.00,WSW,240,11.0,16.0,37,0.00,,,0.00,meteohub,2013-05-30 05:57:00,
2013-05-29 23:02:00,73.8,45.9,-100.00,SSW,192,6.0,16.0,37,0.00,,,0.00,meteohub,2013-05-30 06:02:00,
2013-05-29 23:07:00,73.6,46.4,-100.00,SW,223,8.0,16.0,38,0.00,,,0.00,meteohub,2013-05-30 06:07:00,
2013-05-29 23:12:00,73.6,45.7,-100.00,SSW,199,5.0,15.0,37,0.00,,,0.00,meteohub,2013-05-30 06:12:00,
2013-05-29 23:17:00,73.8,45.9,-100.00,SW,219,8.0,15.0,37,0.00,,,0.00,meteohub,2013-05-30 06:17:00,
2013-05-29 23:22:00,73.6,45.7,-100.00,SW,219,6.0,15.0,37,0.00,,,0.00,meteohub,2013-05-30 06:22:00,
2013-05-29 23:27:00,73.4,46.2,-100.00,South,178,9.0,15.0,38,0.00,,,0.00,meteohub,2013-05-30 06:27:00,
2013-05-29 23:32:00,73.6,46.4,-100.00,SSW,204,10.0,15.0,38,0.00,,,0.00,meteohub,2013-05-30 06:32:00,
2013-05-29 23:37:00,73.2,46.0,-100.00,SW,222,8.0,15.0,38,0.00,,,0.00,meteohub,2013-05-30 06:37:00,
2013-05-29 23:42:00,72.9,46.4,-100.00,SW,219,4.0,15.0,39,0.00,,,0.00,meteohub,2013-05-30 06:42:00,
2013-05-29 23:47:00,72.9,46.4,-100.00,SW,214,12.0,15.0,39,0.00,,,0.00,meteohub,2013-05-30 06:47:00,
2013-05-29 23:52:00,72.9,46.4,-100.00,SSW,210,13.0,15.0,39,0.00,,,0.00,meteohub,2013-05-30 06:52:00,
2013-05-29 23:57:00,72.7,46.2,-100.00,SW,234,9.0,18.0,39,0.00,,,0.00,meteohub,2013-05-30 06:57:00,